M0ZPG Weather Reports


time (UTC)temp
C
wind
direction
speed
KPH
gust
KPH
rain 1hr
cm
rain 24hr
cm
rain mn
cm
humidity
%
barometer
mb
20260510140003 12 67 4.8 14.5 0.00 0.00 0.00 69 1014.7
20260510135405 12 78 6.4 17.7 0.00 0.00 0.00 70 1014.7
20260510134506 12 78 6.4 17.7 0.00 0.00 0.00 70 1014.7
20260510133603 12 85 6.4 19.3 0.00 0.00 0.00 69 1014.7
20260510132703 12 80 4.8 14.5 0.00 0.00 0.00 70 1014.8
20260510131803 12 82 4.8 16.1 0.00 0.00 0.00 70 1014.8
20260510130903 12 67 4.8 20.9 0.00 0.00 0.00 70 1015.0
20260510130003 12 63 6.4 19.3 0.00 0.00 0.00 71 1015.1
20260510125404 12 55 6.4 14.5 0.00 0.00 0.00 70 1015.1
20260510124505 12 40 4.8 20.9 0.00 0.00 0.00 70 1015.2
20260510123605 12 40 4.8 19.3 0.00 0.00 0.00 69 1015.3
20260510122705 12 41 4.8 22.5 0.00 0.00 0.00 69 1015.4
20260510122017 13 39 4.8 17.7 0.00 0.00 0.00 68 1015.3
20260510120903 12 54 6.4 25.7 0.00 0.00 0.00 68 1015.3
20260510120005 12 41 6.4 20.9 0.00 0.00 0.00 68 1015.4
20260510115404 12 25 6.4 19.3 0.00 0.00 0.00 68 1015.4
20260510114507 13 45 4.8 19.3 0.00 0.00 0.00 68 1015.4
20260510113603 13 57 6.4 25.7 0.00 0.00 0.00 68 1015.6
20260510112704 12 31 4.8 17.7 0.00 0.00 0.00 69 1015.7
20260510111803 12 30 6.4 20.9 0.00 0.00 0.00 69 1015.8
20260510110905 12 53 4.8 17.7 0.00 0.00 0.00 68 1015.8
20260510110003 12 12 4.8 24.1 0.00 0.00 0.00 68 1016.0
20260510105403 12 20 4.8 16.1 0.00 0.00 0.00 69 1015.9
20260510104503 12 38 3.2 12.9 0.00 0.00 0.00 70 1016.0
20260510103605 12 19 4.8 19.3 0.00 0.00 0.00 70 1016.1
20260510102915 12 17 4.8 19.3 0.00 0.00 0.00 70 1016.0
20260510101803 12 54 4.8 22.5 0.00 0.00 0.00 72 1016.0
20260510100904 12 76 4.8 16.1 0.00 0.00 0.00 71 1016.0
20260510100005 12 52 4.8 16.1 0.00 0.00 0.00 71 1015.9
20260510095403 12 24 4.8 20.9 0.00 0.00 0.00 71 1015.9
20260510094503 12 49 4.8 16.1 0.00 0.00 0.00 72 1016.0
20260510093605 12 24 4.8 24.1 0.00 0.00 0.00 71 1016.2
20260510092703 12 20 4.8 17.7 0.00 0.00 0.00 72 1016.1
20260510091803 12 49 3.2 12.9 0.00 0.00 0.00 73 1016.2
20260510090905 11 38 6.4 25.7 0.00 0.00 0.00 72 1016.2
20260510090005 11 20 6.4 22.5 0.00 0.00 0.00 73 1016.4
20260510085403 11 38 6.4 22.5 0.00 0.00 0.00 74 1016.2
20260510084717 11 63 4.8 22.5 0.00 0.00 0.00 74 1016.3
20260510083814 11 38 4.8 17.7 0.00 0.00 0.00 75 1016.4
20260510082703 11 30 4.8 20.9 0.00 0.00 0.00 76 1016.4
20260510081805 11 33 6.4 20.9 0.00 0.00 0.00 76 1016.5
20260510080903 11 31 6.4 22.5 0.00 0.00 0.00 77 1016.4
20260510080219 11 63 4.8 16.1 0.00 0.00 0.00 77 1016.3
20260510075404 11 28 4.8 19.3 0.00 0.00 0.00 78 1016.3
20260510074718 11 38 3.2 19.3 0.00 0.00 0.00 78 1016.3
20260510073815 11 30 6.4 19.3 0.00 0.00 0.00 79 1016.3
20260510072705 10 50 3.2 20.9 0.00 0.00 0.00 79 1016.3
20260510071803 10 60 6.4 20.9 0.00 0.00 0.00 80 1016.3
20260510070905 10 38 6.4 19.3 0.00 0.00 0.00 80 1016.2
20260510070004 10 46 4.8 22.5 0.00 0.00 0.00 80 1016.3
20260510065403 10 51 3.2 14.5 0.00 0.00 0.00 80 1016.2
20260510064503 10 49 4.8 16.1 0.00 0.00 0.00 81 1016.3
20260510063605 10 43 3.2 16.1 0.00 0.00 0.00 81 1016.3
20260510062703 10 71 3.2 17.7 0.00 0.00 0.00 81 1016.2
20260510061805 10 33 4.8 20.9 0.00 0.00 0.00 81 1016.1
20260510060903 10 45 3.2 14.5 0.00 0.00 0.00 81 1016.2
20260510060004 10 28 4.8 20.9 0.00 0.00 0.00 81 1016.1
20260510055405 10 42 3.2 14.5 0.00 0.00 0.00 81 1016.0
20260510054505 10 40 3.2 20.9 0.00 0.00 0.00 82 1015.9
20260510053603 10 25 4.8 19.3 0.00 0.00 0.00 82 1015.9
20260510052919 10 39 3.2 16.1 0.00 0.00 0.00 82 1015.9
20260510052016 10 45 4.8 16.1 0.00 0.00 0.00 82 1015.9
20260510051118 10 55 3.2 16.1 0.00 0.00 0.00 83 1016.0
20260510050216 10 47 3.2 12.9 0.00 0.00 0.00 83 1016.0
20260510045405 10 58 3.2 16.1 0.00 0.00 0.00 84 1016.0
20260510044505 10 24 1.6 14.5 0.00 0.00 0.00 84 1016.0
20260510043817 10 27 1.6 14.5 0.00 0.00 0.00 84 1016.0
20260510042703 10 34 3.2 12.9 0.00 0.00 0.00 84 1016.2
20260510042017 10 25 1.6 12.9 0.00 0.00 0.00 84 1016.1
20260510041114 10 2 3.2 11.3 0.00 0.00 0.00 85 1016.2
20260510040216 10 35 3.2 12.9 0.00 0.00 0.00 85 1016.3
20260510035403 10 36 1.6 12.9 0.00 0.00 0.00 85 1016.3
20260510034505 10 26 1.6 12.9 0.00 0.00 0.00 85 1016.3
20260510033605 10 27 1.6 11.3 0.00 0.00 0.00 84 1016.4
20260510032703 10 46 1.6 4.8 0.00 0.00 0.00 84 1016.6
20260510031806 10 33 1.6 9.7 0.00 0.00 0.00 84 1016.6
20260510030905 10 23 1.6 9.7 0.00 0.00 0.00 84 1016.5
20260510030005 10 6 1.6 9.7 0.00 0.00 0.00 83 1016.6
20260510025404 10 10 1.6 6.4 0.00 0.00 0.00 83 1016.7
20260510024503 10 32 1.6 4.8 0.00 0.00 0.00 82 1016.7
20260510023603 10 34 1.6 12.9 0.00 0.00 0.00 82 1016.7
20260510022706 10 33 3.2 14.5 0.00 0.00 0.00 82 1016.7
20260510021804 10 25 3.2 14.5 0.00 0.00 0.00 81 1016.5
20260510020903 10 29 3.2 14.5 0.00 0.00 0.00 80 1016.5
20260510020005 10 33 4.8 22.5 0.00 0.00 0.00 79 1016.5
20260510015404 10 30 4.8 22.5 0.00 0.00 0.00 78 1016.5
20260510014505 10 43 3.2 12.9 0.00 0.00 0.00 77 1016.5
20260510013603 11 16 3.2 14.5 0.00 0.00 0.00 76 1016.5
20260510012916 11 10 3.2 14.5 0.00 0.00 0.00 76 1016.6
20260510011806 11 49 1.6 9.7 0.00 0.00 0.00 76 1016.6
20260510011116 11 61 1.6 9.7 0.00 0.00 0.00 76 1016.6
20260510010004 11 40 3.2 9.7 0.00 0.00 0.00 75 1016.5
20260510005403 11 31 3.2 9.7 0.00 0.00 0.00 74 1016.5
20260510004717 11 43 3.2 12.9 0.00 0.00 0.00 73 1016.4
20260510003603 11 41 1.6 6.4 0.00 0.00 0.00 72 1016.3
20260510002703 11 33 1.6 12.9 0.00 0.00 0.00 71 1016.4
20260510001808 11 35 1.6 12.9 0.00 0.00 0.00 70 1016.6
20260510000903 12 34 1.6 8.0 0.00 0.00 0.00 69 1016.4
20260510000003 12 35 1.6 8.0 0.00 0.00 0.00 68 1016.4
20260509235403 12 36 1.6 9.7 0.00 0.00 0.00 67 1016.5
20260509234718 12 17 3.2 14.5 0.00 0.00 0.00 67 1016.4
20260509233603 12 78 1.6 11.3 0.00 0.00 0.00 69 1016.4
20260509232703 12 77 1.6 11.3 0.00 0.00 0.00 69 1016.4
20260509231805 12 68 1.6 9.7 0.00 0.00 0.00 69 1016.8
20260509230905 12 89 3.2 16.1 0.00 0.00 0.00 68 1016.7
20260509230006 12 81 3.2 11.3 0.00 0.00 0.00 68 1016.7
20260509225403 12 83 1.6 8.0 0.00 0.00 0.00 67 1016.8
20260509224503 12 80 1.6 9.7 0.00 0.00 0.00 66 1016.6
20260509223603 12 63 1.6 12.9 0.00 0.00 0.00 65 1016.7
20260509222703 12 36 1.6 4.8 0.00 0.00 0.00 63 1016.7
20260509221803 12 58 1.6 11.3 0.00 0.00 0.00 63 1016.6
20260509221118 13 61 1.6 4.8 0.00 0.00 0.00 61 1016.5
20260509220003 13 78 1.6 4.8 0.00 0.00 0.00 59 1016.7
20260509215403 13 76 1.6 6.4 0.00 0.00 0.00 59 1016.7
20260509214506 13 85 1.6 9.7 0.00 0.00 0.00 59 1016.7
20260509213816 13 81 3.2 8.0 0.00 0.00 0.00 58 1016.7
20260509212016 13 88 3.2 11.3 0.00 0.00 0.00 57 1016.5
20260509210003 13 76 1.6 12.9 0.00 0.00 0.00 55 1016.2
20260509205403 13 70 1.6 12.9 0.00 0.00 0.00 55 1016.3
20260509204508 14 87 3.2 8.0 0.00 0.00 0.00 54 1016.3
20260509202703 14 86 3.2 11.3 0.00 0.00 0.00 53 1016.3
20260509201805 14 79 3.2 14.5 0.00 0.00 0.00 51 1016.2
20260509200905 14 95 3.2 9.7 0.00 0.00 0.00 50 1016.2
20260509200005 15 89 3.2 9.7 0.00 0.00 0.00 49 1016.2
20260509195405 15 74 3.2 12.9 0.00 0.00 0.00 49 1016.2
20260509194504 15 92 3.2 12.9 0.00 0.00 0.00 48 1016.0
20260509193812 15 79 3.2 11.3 0.00 0.00 0.00 47 1016.0
20260509192703 15 81 4.8 12.9 0.00 0.00 0.00 47 1015.9
20260509191115 15 88 3.2 12.9 0.00 0.00 0.00 48 1015.5
20260509190006 16 83 4.8 17.7 0.00 0.00 0.00 47 1015.5
20260509185405 16 88 6.4 17.7 0.00 0.00 0.00 48 1015.6
20260509184503 16 89 6.4 17.7 0.00 0.00 0.00 48 1015.6
20260509183606 16 90 4.8 19.3 0.00 0.00 0.00 48 1015.5
20260509182915 16 88 4.8 17.7 0.00 0.00 0.00 48 1015.6
20260509181803 16 87 4.8 19.3 0.00 0.00 0.00 48 1015.6
20260509180906 16 84 6.4 19.3 0.00 0.00 0.00 47 1015.6
20260509180004 17 95 3.2 19.3 0.00 0.00 0.00 46 1015.5
20260509175614 17 95 3.2 14.5 0.00 0.00 0.00 46 1015.4
20260509174506 17 91 8.0 17.7 0.00 0.00 0.00 45 1015.3
20260509173814 17 94 6.4 17.7 0.00 0.00 0.00 45 1015.3
20260509172703 18 92 8.0 16.1 0.00 0.00 0.00 45 1015.3
20260509171805 18 82 6.4 17.7 0.00 0.00 0.00 45 1015.3
20260509170906 18 88 6.4 16.1 0.00 0.00 0.00 44 1015.4
20260509170005 18 80 4.8 16.1 0.00 0.00 0.00 41 1015.4
20260509164505 19 89 4.8 16.1 0.00 0.00 0.00 40 1015.5
20260509163603 19 85 6.4 17.7 0.00 0.00 0.00 41 1015.4
20260509162917 20 91 4.8 17.7 0.00 0.00 0.00 41 1015.4
20260509161805 20 87 4.8 16.1 0.00 0.00 0.00 43 1015.4
20260509160904 20 89 4.8 16.1 0.00 0.00 0.00 43 1015.5
20260509160004 20 94 6.4 20.9 0.00 0.00 0.00 42 1015.7
20260509154503 20 97 4.8 16.1 0.00 0.00 0.00 41 1015.7
20260509153606 20 95 6.4 17.7 0.00 0.00 0.00 40 1015.7
20260509152703 21 94 3.2 14.5 0.00 0.00 0.00 41 1015.7
20260509151805 20 79 4.8 14.5 0.00 0.00 0.00 40 1015.8
20260509150903 20 91 4.8 16.1 0.00 0.00 0.00 40 1015.7
20260509150005 21 74 4.8 16.1 0.00 0.00 0.00 39 1015.6
20260509145405 20 69 3.2 16.1 0.00 0.00 0.00 40 1015.6
20260509144504 20 79 4.8 17.7 0.00 0.00 0.00 41 1015.5
20260509143816 20 84 4.8 16.1 0.00 0.00 0.00 42 1015.6
20260509142705 21 93 4.8 12.9 0.00 0.00 0.00 41 1015.2
20260509141803 20 95 6.4 25.7 0.00 0.00 0.00 42 1015.2
20260509140904 21 88 4.8 16.1 0.00 0.00 0.00 42 1015.4